This demonstration page uses our WeatherBlox Daily Observations layout. Learn more.

Left ArrowRight Arrow

38.80484, -77.04692

Hourly Observations for February 21, 2016

Temp ( °F °C ) Dew Point ( °F °C ) Humidity (%) Winds ( mph kmh ) Pressure ( in mb ) Visibility ( mi km ) Precip ( " mm )
12:52 am 00:52 Clear 50 10 42 5.6 74 74 S 9 15 29.94 1014 10 16 0.00 0.00
1:52 am 01:52 Clear 48 8.9 42 5.6 80 80 S 12 19 29.94 1014 10 16 0.00 0.00
2:52 am 02:52 Clear 48 8.9 42 5.6 80 80 SSW 8 13 29.93 1013 10 16 0.00 0.00
3:52 am 03:52 Mostly Cloudy 49 9.4 43 6.1 80 80 S 8 13 29.93 1013 10 16 0.00 0.00
4:52 am 04:52 Mostly Clear 48 8.9 42 5.6 80 80 S 9 15 29.94 1014 10 16 0.00 0.00
5:52 am 05:52 Mostly Cloudy 49 9.4 44 6.7 83 83 SSW 3 6 29.95 1014 10 16 0.00 0.00
6:52 am 06:52 Mostly Cloudy 45 7.2 42 5.6 90 90 S 6 9 29.95 1014 10 16 0.00 0.00
7:52 am 07:52 Mostly Cloudy 48 8.9 44 6.7 86 86 S 6 9 29.95 1014 10 16 0.00 0.00
8:52 am 08:52 Mostly Cloudy 50 10 45 7.2 83 83 S 6 9 29.96 1015 10 16 0.00 0.00
9:52 am 09:52 Mostly Cloudy 54 12.2 46 7.8 75 75 SSW 8 13 29.95 1014 10 16 0.00 0.00
10:52 am 10:52 Mostly Cloudy 52 11.1 45 7.2 77 77 SSE 7 11 29.97 1015 10 16 0.00 0.00
11:52 am 11:52 Cloudy with Light Rain 55 12.8 48 8.9 77 77 N 8 13 29.94 1014 9 14 0.01 0.25
12:52 pm 12:52 Cloudy 55 12.8 48 8.9 77 77 Calm 29.89 1012 10 16 0.00 0.03
1:52 pm 13:52 Cloudy 56 13.3 49 9.4 77 77 W 6 9 29.87 1011 10 16 0.00 0.03
2:52 pm 14:52 Cloudy with Light Rain 52 11.1 47 8.3 83 83 S 10 17 29.87 1012 6 10 0.00 0.03
3:03 pm 15:03 Cloudy with Light Rain 52 11 48 9 88 88 S 8 13 29.88 1012 3 4 0.00 0.00
3:12 pm 15:12 Cloudy with Light Rain 54 12 50 10 88 88 S 6 9 29.88 1012 3 5 0.00 0.00
3:15 pm 15:15 Cloudy with Light Rain 52 11.1 50 10 93 93 S 6 9 29.88 1012 3 4 0.02 0.51
3:38 pm 15:38 Cloudy with Light Rain 52 11 52 11 100 100 SSE 3 6 29.88 1012 2 3 0.00 0.00
3:52 pm 15:52 Cloudy with Light Rain 52 11.1 51 10.6 97 97 S 5 7 29.86 1011 2 2 0.06 1.52
4:00 pm 16:00 Cloudy with Light Rain 52 11 52 11 100 100 S 7 11 29.85 1011 2 3 0.00 0.00
4:12 pm 16:12 Cloudy with Light Rain 54 12 52 11 94 94 S 7 11 29.85 1011 3 5 0.00 0.00
4:50 pm 16:50 Cloudy with Mist and Fog 52 11 52 11 100 100 S 10 17 29.85 1011 2 3 0.00 0.00
4:52 pm 16:52 Cloudy with Drizzle 51 10.6 50 10 96 96 S 8 13 29.86 1011 1 2 0.00 0.03
4:57 pm 16:57 Cloudy with Drizzle 51 10.6 50 10 96 96 S 8 13 29.88 1012 2 3 0.00 0.03
5:07 pm 17:07 Cloudy with Drizzle 53 11.7 51 10.6 93 93 WSW 5 7 29.88 1012 2 3 0.00 0.03
5:09 pm 17:09 Cloudy with Drizzle 53 11.7 51 10.6 93 93 Calm 29.88 1012 3 5 0.00 0.03
5:27 pm 17:27 Cloudy with Drizzle 51 10.6 50 10 96 96 ESE 3 6 29.88 1012 3 5 0.00 0.03
5:32 pm 17:32 Cloudy with Drizzle 50 10 48 9 94 94 Calm 29.88 1012 2 3 0.00 0.00
5:34 pm 17:34 Cloudy with Drizzle 50 10 48 9 94 94 Calm 29.88 1012 3 4 0.00 0.00
5:38 pm 17:38 Cloudy with Mist and Fog 50 10 48 9 94 94 Calm 29.88 1012 3 5 0.00 0.00
5:52 pm 17:52 Cloudy with Mist and Fog 50 10 49 9.4 96 96 N 3 6 29.87 1012 3 5 0.00 0.03
5:55 pm 17:55 Cloudy with Mist and Fog 51 10.6 50 10 96 96 N 5 7 29.88 1012 3 5 0.00 0.00
6:19 pm 18:19 Cloudy with Mist and Fog 50 10 49 9.4 96 96 NNE 6 9 29.88 1012 3 5 0.00 0.00
6:24 pm 18:24 Cloudy with Mist and Fog 50 10 48 9 94 94 N 5 7 29.88 1012 3 5 0.00 0.00
6:41 pm 18:41 Cloudy with Mist and Fog 52 11.1 51 10.6 97 97 N 5 7 29.88 1012 6 10 0.00 0.00
6:52 pm 18:52 Cloudy with Mist and Fog 52 11.1 51 10.6 97 97 N 5 7 29.88 1012 6 10 0.00 0.00
7:20 pm 19:20 Cloudy with Mist and Fog 48 9 48 9 100 100 N 3 6 29.88 1012 6 10 0.00 0.00
7:52 pm 19:52 Cloudy with Mist and Fog 51 10.6 51 10.6 100 100 N 3 6 29.89 1012 5 8 0.00 0.00
8:52 pm 20:52 Cloudy with Mist and Fog 51 10.6 49 9.4 92 92 N 7 11 29.91 1013 5 8 0.00 0.00
9:08 pm 21:08 Cloudy 52 11 48 9 88 88 N 17 28 29.91 1013 7 11 0.00 0.00
9:31 pm 21:31 Cloudy 50 10 43 6.1 77 77 N 13 20 29.94 1014 10 16 0.00 0.00
9:52 pm 21:52 Cloudy with Light Rain 49 9.4 44 6.7 83 83 NNE 13 20 29.94 1014 5 8 0.01 0.25
10:03 pm 22:03 Cloudy with Light Rain 48 9 45 7 87 87 NE 8 13 29.94 1014 6 10 0.00 0.00
10:22 pm 22:22 Cloudy 48 9 45 7 87 87 NNE 7 11 29.94 1014 10 16 0.00 0.00
10:28 pm 22:28 Cloudy with Light Rain 48 9 45 7 87 87 NNE 6 9 29.94 1014 9 14 0.00 0.00
10:52 pm 22:52 Cloudy with Light Rain 48 8.9 45 7.2 89 89 NNE 10 17 29.93 1013 10 16 0.01 0.25
11:52 pm 23:52 Cloudy with Light Rain 48 8.9 45 7.2 89 89 N 9 15 29.96 1014 10 16 0.00 0.03

Powered by AerisWeather